QPF
0.00 0.00 0.00 0.00 0.00 0.00 0.00 0.00 0.00 0.00 0.00 0.00 0.00 0.00 0.00 0.00 0.00 0.00 0.00 0.00 0.00 0.00 0.00 0.01 0.01 0.02 0.03 0.04 0.06 0.07 0.08 0.08 0.06 0.01 0.00 0.00 0.00 0.00 0.00 0.00 0.00 0.00 0.00
0.00 0.00 0.00 0.00 0.00 0.00 0.00 0.00 0.00 0.00 0.00 0.00 0.00 0.00 0.00 0.00 0.00 0.00 0.00 0.00 0.00 0.00 0.00 0.00 0.00 0.00 0.01 0.02 0.03 0.03 0.03 0.02 0.02 0.01 0.00 0.00 0.00 0.00 0.00 0.00 0.00 0.00 0.00
0.00 0.00 0.00 0.00 0.00 0.00 0.00 0.00 0.00 0.00 0.00 0.00 0.00 0.00 0.00 0.00 0.00 0.00 0.00 0.00 0.00 0.00 0.00 0.00 0.00 0.00 0.00 0.01 0.02 0.02 0.02 0.01 0.01 0.01 0.01 0.00 0.01 0.01 0.01 0.00 0.00 0.00 0.00
0.00 0.00 0.00 0.00 0.00 0.00 0.00 0.00 0.00 0.00 0.00 0.00 0.00 0.00 0.00 0.00 0.00 0.01 0.02 0.01 0.01 0.01 0.00 0.00 0.00 0.00 0.01 0.02 0.03 0.04 0.02 0.01 0.01 0.01 0.01 0.01 0.01 0.01 0.01 0.01 0.01 0.01 0.01
0.00 0.00 0.00 0.00 0.00 0.00 0.00 0.00 0.00 0.00 0.00 0.00 0.00 0.00 0.00 0.00 0.01 0.05 0.06 0.04 0.02 0.02 0.01 0.01 0.00 0.01 0.01 0.04 0.07 0.06 0.04 0.02 0.01 0.01 0.01 0.01 0.01 0.01 0.02 0.01 0.01 0.01 0.01
0.00 0.00 0.00 0.00 0.00 0.00 0.00 0.00 0.00 0.00 0.00 0.00 0.00 0.00 0.00 0.00 0.00 0.05 0.10 0.07 0.04 0.03 0.02 0.01 0.00 0.00 0.01 0.03 0.06 0.06 0.04 0.03 0.05 0.04 0.02 0.01 0.01 0.01 0.02 0.02 0.02 0.02 0.02
0.00 0.00 0.00 0.00 0.00 0.00 0.00 0.00 0.00 0.00 0.00 0.00 0.00 0.00 0.00 0.00 0.00 0.03 0.09 0.07 0.04 0.03 0.01 0.00 0.00 0.00 0.01 0.04 0.06 0.03 0.01 0.02 0.05 0.06 0.03 0.02 0.02 0.02 0.02 0.02 0.02 0.03 0.03
0.00 0.00 0.00 0.00 0.00 0.00 0.00 0.00 0.00 0.00 0.00 0.00 0.00 0.00 0.00 0.00 0.00 0.03 0.09 0.07 0.03 0.02 0.01 0.00 0.00 0.01 0.02 0.09 0.05 0.01 0.00 0.01 0.03 0.03 0.04 0.03 0.02 0.02 0.03 0.03 0.02 0.02 0.02
0.00 0.00 0.00 0.00 0.00 0.00 0.00 0.00 0.00 0.00 0.00 0.00 0.00 0.00 0.00 0.00 0.00 0.04 0.10 0.07 0.03 0.01 0.00 0.00 0.00 0.01 0.04 0.07 0.02 0.01 0.01 0.02 0.02 0.02 0.03 0.03 0.03 0.03 0.04 0.03 0.02 0.02 0.04
0.00 0.00 0.00 0.00 0.00 0.00 0.00 0.00 0.00 0.00 0.00 0.00 0.00 0.00 0.00 0.00 0.01 0.05 0.10 0.07 0.02 0.00 0.00 0.00 0.00 0.02 0.03 0.04 0.03 0.02 0.05 0.05 0.01 0.01 0.01 0.01 0.01 0.01 0.02 0.02 0.02 0.03 0.06
0.00 0.00 0.00 0.00 0.00 0.00 0.00 0.00 0.00 0.00 0.00 0.00 0.00 0.00 0.00 0.00 0.01 0.04 0.08 0.06 0.02 0.00 0.00 0.00 0.00 0.01 0.02 0.02 0.02 0.05 0.10 0.07 0.02 0.02 0.01 0.01 0.01 0.01 0.01 0.01 0.02 0.03 0.06
0.00 0.00 0.00 0.00 0.00 0.00 0.00 0.00 0.00 0.00 0.00 0.00 0.00 0.00 0.00 0.00 0.02 0.04 0.05 0.03 0.02 0.01 0.00 0.00 0.00 0.00 0.00 0.00 0.01 0.04 0.04 0.03 0.02 0.02 0.02 0.02 0.02 0.02 0.01 0.01 0.01 0.02 0.05
0.00 0.00 0.00 0.00 0.00 0.00 0.00 0.00 0.00 0.00 0.00 0.00 0.00 0.00 0.00 0.00 0.02 0.04 0.03 0.02 0.02 0.01 0.00 0.00 0.00 0.00 0.00 0.00 0.00 0.01 0.01 0.02 0.04 0.04 0.04 0.04 0.03 0.03 0.02 0.02 0.01 0.02 0.05
0.00 0.00 0.00 0.00 0.00 0.00 0.00 0.00 0.00 0.00 0.00 0.00 0.00 0.00 0.00 0.01 0.02 0.04 0.03 0.01 0.01 0.01 0.00 0.00 0.00 0.00 0.00 0.00 0.00 0.00 0.00 0.02 0.05 0.06 0.06 0.05 0.04 0.03 0.03 0.03 0.03 0.03 0.05
0.00 0.00 0.00 0.00 0.00 0.00 0.00 0.00 0.00 0.00 0.00 0.00 0.00 0.00 0.01 0.01 0.02 0.04 0.03 0.01 0.01 0.01 0.00 0.00 0.00 0.00 0.00 0.00 0.00 0.00 0.00 0.01 0.02 0.04 0.05 0.05 0.04 0.04 0.03 0.03 0.03 0.03 0.05
0.00 0.00 0.00 0.00 0.00 0.00 0.00 0.00 0.00 0.00 0.00 0.00 0.00 0.00 0.00 0.01 0.01 0.02 0.02 0.01 0.01 0.01 0.00 0.00 0.00 0.00 0.00 0.00 0.00 0.00 0.00 0.00 0.01 0.02 0.03 0.05 0.05 0.05 0.04 0.03 0.03 0.03 0.04
0.00 0.00 0.00 0.00 0.00 0.00 0.00 0.00 0.00 0.00 0.00 0.00 0.00 0.00 0.00 0.01 0.01 0.01 0.01 0.00 0.00 0.00 0.00 0.00 0.00 0.01 0.01 0.01 0.01 0.00 0.00 0.00 0.00 0.01 0.01 0.03 0.03 0.04 0.03 0.03 0.03 0.03 0.03
0.00 0.00 0.00 0.00 0.00 0.00 0.00 0.00 0.00 0.00 0.00 0.00 0.00 0.00 0.00 0.00 0.00 0.00 0.00 0.00 0.00 0.00 0.00 0.00 0.01 0.01 0.01 0.01 0.01 0.01 0.00 0.00 0.00 0.00 0.00 0.01 0.02 0.02 0.03 0.03 0.03 0.03 0.03
0.00 0.00 0.00 0.00 0.00 0.00 0.00 0.00 0.00 0.00 0.00 0.00 0.00 0.00 0.00 0.00 0.00 0.00 0.00 0.00 0.00 0.00 0.00 0.00 0.01 0.01 0.01 0.02 0.02 0.01 0.01 0.00 0.00 0.00 0.00 0.00 0.01 0.01 0.02 0.02 0.02 0.02 0.02
0.00 0.00 0.00 0.00 0.00 0.00 0.00 0.00 0.00 0.00 0.00 0.00 0.00 0.00 0.00 0.00 0.00 0.00 0.00 0.00 0.00 0.00 0.00 0.00 0.00 0.01 0.01 0.02 0.02 0.02 0.01 0.01 0.00 0.00 0.00 0.00 0.00 0.00 0.01 0.01 0.01 0.02 0.02
0.00 0.00 0.00 0.00 0.00 0.00 0.00 0.00 0.00 0.00 0.00 0.00 0.00 0.00 0.00 0.00 0.00 0.00 0.00 0.00 0.00 0.00 0.00 0.01 0.01 0.01 0.01 0.02 0.02 0.02 0.02 0.01 0.00 0.00 0.00 0.00 0.00 0.00 0.00 0.00 0.01 0.01 0.01
0.00 0.00 0.00 0.00 0.00 0.00 0.00 0.00 0.00 0.00 0.00 0.00 0.00 0.00 0.00 0.00 0.00 0.00 0.00 0.00 0.00 0.00 0.00 0.01 0.01 0.02 0.02 0.03 0.03 0.03 0.02 0.02 0.01 0.00 0.00 0.00 0.00 0.00 0.00 0.00 0.00 0.00 0.01
0.00 0.00 0.00 0.00 0.00 0.00 0.00 0.00 0.00 0.00 0.00 0.00 0.00 0.00 0.00 0.00 0.00 0.00 0.00 0.00 0.00 0.00 0.00 0.01 0.01 0.01 0.02 0.03 0.03 0.04 0.04 0.03 0.01 0.01 0.00 0.00 0.00 0.00 0.00 0.00 0.00 0.00 0.01
0.00 0.00 0.00 0.00 0.00 0.00 0.00 0.00 0.00 0.00 0.00 0.00 0.00 0.00 0.00 0.00 0.00 0.00 0.00 0.00 0.00 0.00 0.00 0.00 0.01 0.01 0.02 0.02 0.02 0.03 0.03 0.02 0.01 0.01 0.00 0.00 0.00 0.00 0.00 0.00 0.00 0.00 0.00
0.01 0.00 0.00 0.00 0.00 0.00 0.00 0.00 0.00 0.00 0.00 0.00 0.00 0.00 0.00 0.00 0.00 0.00 0.00 0.00 0.00 0.00 0.00 0.00 0.01 0.01 0.01 0.02 0.03 0.03 0.03 0.02 0.01 0.00 0.00 0.00 0.00 0.00 0.00 0.00 0.00 0.00 0.00
0.01 0.00 0.00 0.00 0.00 0.00 0.00 0.00 0.00 0.00 0.00 0.00 0.00 0.00 0.00 0.00 0.00 0.00 0.00 0.00 0.00 0.00 0.00 0.00 0.00 0.00 0.01 0.02 0.03 0.03 0.02 0.01 0.01 0.00 0.00 0.00 0.00 0.00 0.00 0.00 0.00 0.00 0.00
MSLP
1026.86 1027.14 1027.41 1027.64 1027.82 1027.93 1027.97 1027.93 1027.82 1027.66 1027.45 1027.21 1026.93 1026.61 1026.26 1025.88 1025.45 1024.99 1024.51 1024.00 1023.47 1022.93 1022.37 1021.78 1021.15 1020.47 1019.73 1018.92 1018.05 1017.14 1016.21 1015.28 1014.38 1013.53 1012.73 1011.97 1011.27 1010.58 1009.91 1009.24 1008.57 1007.92 1007.29
1026.39 1026.68 1026.95 1027.19 1027.37 1027.50 1027.56 1027.54 1027.46 1027.31 1027.11 1026.85 1026.55 1026.20 1025.82 1025.39 1024.93 1024.44 1023.94 1023.42 1022.89 1022.36 1021.80 1021.22 1020.60 1019.92 1019.18 1018.38 1017.53 1016.66 1015.78 1014.92 1014.10 1013.32 1012.60 1011.91 1011.24 1010.57 1009.87 1009.14 1008.38 1007.60 1006.83
1025.97 1026.28 1026.55 1026.79 1026.97 1027.10 1027.15 1027.13 1027.05 1026.89 1026.67 1026.39 1026.05 1025.66 1025.22 1024.75 1024.24 1023.72 1023.19 1022.66 1022.14 1021.62 1021.09 1020.54 1019.94 1019.29 1018.58 1017.80 1016.99 1016.16 1015.34 1014.55 1013.80 1013.11 1012.47 1011.85 1011.23 1010.57 1009.86 1009.08 1008.23 1007.34 1006.44
1025.57 1025.91 1026.19 1026.42 1026.59 1026.70 1026.73 1026.69 1026.58 1026.40 1026.15 1025.83 1025.44 1024.99 1024.50 1023.96 1023.41 1022.85 1022.30 1021.77 1021.26 1020.77 1020.27 1019.76 1019.21 1018.60 1017.93 1017.20 1016.44 1015.65 1014.88 1014.15 1013.48 1012.86 1012.29 1011.74 1011.17 1010.54 1009.83 1009.02 1008.12 1007.14 1006.13
1025.15 1025.52 1025.83 1026.05 1026.20 1026.28 1026.29 1026.22 1026.08 1025.86 1025.57 1025.20 1024.76 1024.25 1023.69 1023.10 1022.50 1021.90 1021.33 1020.80 1020.31 1019.85 1019.40 1018.94 1018.44 1017.89 1017.28 1016.60 1015.87 1015.13 1014.41 1013.73 1013.10 1012.54 1012.04 1011.54 1011.03 1010.44 1009.76 1008.96 1008.03 1007.00 1005.92
1024.66 1025.09 1025.42 1025.64 1025.78 1025.84 1025.81 1025.72 1025.54 1025.29 1024.97 1024.56 1024.07 1023.51 1022.90 1022.26 1021.60 1020.97 1020.38 1019.85 1019.38 1018.95 1018.55 1018.14 1017.70 1017.20 1016.64 1016.00 1015.32 1014.61 1013.92 1013.26 1012.67 1012.15 1011.68 1011.24 1010.78 1010.25 1009.62 1008.85 1007.94 1006.91 1005.80
1024.08 1024.57 1024.92 1025.16 1025.30 1025.34 1025.31 1025.20 1025.01 1024.74 1024.39 1023.96 1023.44 1022.85 1022.19 1021.51 1020.82 1020.16 1019.55 1019.01 1018.54 1018.14 1017.77 1017.41 1017.02 1016.57 1016.05 1015.44 1014.79 1014.10 1013.41 1012.77 1012.19 1011.69 1011.25 1010.84 1010.43 1009.96 1009.39 1008.68 1007.83 1006.83 1005.72
1023.40 1023.93 1024.32 1024.59 1024.74 1024.79 1024.76 1024.65 1024.47 1024.22 1023.88 1023.44 1022.92 1022.31 1021.63 1020.92 1020.20 1019.51 1018.88 1018.34 1017.87 1017.48 1017.13 1016.80 1016.44 1016.02 1015.53 1014.95 1014.31 1013.62 1012.94 1012.28 1011.70 1011.19 1010.76 1010.37 1010.00 1009.58 1009.07 1008.44 1007.65 1006.72 1005.66
1022.63 1023.20 1023.62 1023.90 1024.08 1024.16 1024.16 1024.08 1023.94 1023.72 1023.41 1023.00 1022.49 1021.89 1021.22 1020.50 1019.77 1019.07 1018.42 1017.86 1017.38 1016.99 1016.65 1016.32 1015.98 1015.58 1015.10 1014.53 1013.89 1013.21 1012.51 1011.84 1011.23 1010.70 1010.26 1009.87 1009.51 1009.13 1008.68 1008.11 1007.39 1006.53 1005.53
1021.78 1022.37 1022.81 1023.12 1023.33 1023.44 1023.49 1023.47 1023.38 1023.21 1022.96 1022.61 1022.15 1021.58 1020.93 1020.22 1019.50 1018.79 1018.13 1017.55 1017.07 1016.66 1016.31 1015.98 1015.64 1015.24 1014.77 1014.21 1013.57 1012.88 1012.17 1011.48 1010.84 1010.28 1009.80 1009.40 1009.03 1008.65 1008.22 1007.70 1007.04 1006.24 1005.31
1020.88 1021.47 1021.92 1022.25 1022.49 1022.65 1022.75 1022.80 1022.77 1022.68 1022.50 1022.22 1021.82 1021.31 1020.70 1020.03 1019.32 1018.63 1017.97 1017.39 1016.88 1016.46 1016.09 1015.76 1015.40 1015.01 1014.54 1013.99 1013.35 1012.66 1011.94 1011.23 1010.56 1009.96 1009.44 1008.99 1008.58 1008.18 1007.75 1007.23 1006.61 1005.86 1004.97
1019.95 1020.52 1020.97 1021.33 1021.60 1021.80 1021.96 1022.06 1022.12 1022.10 1021.99 1021.79 1021.46 1021.02 1020.48 1019.86 1019.20 1018.53 1017.89 1017.31 1016.80 1016.36 1015.98 1015.62 1015.26 1014.86 1014.40 1013.85 1013.23 1012.54 1011.82 1011.10 1010.41 1009.77 1009.20 1008.69 1008.23 1007.78 1007.30 1006.76 1006.14 1005.40 1004.56
1018.99 1019.55 1020.00 1020.38 1020.68 1020.92 1021.13 1021.29 1021.40 1021.46 1021.42 1021.29 1021.05 1020.69 1020.22 1019.67 1019.07 1018.44 1017.84 1017.27 1016.77 1016.33 1015.93 1015.56 1015.19 1014.79 1014.33 1013.80 1013.20 1012.53 1011.82 1011.10 1010.40 1009.73 1009.11 1008.54 1008.00 1007.48 1006.94 1006.35 1005.69 1004.95 1004.12
1018.02 1018.57 1019.04 1019.43 1019.76 1020.04 1020.29 1020.50 1020.67 1020.78 1020.81 1020.75 1020.58 1020.30 1019.91 1019.44 1018.92 1018.36 1017.80 1017.27 1016.78 1016.34 1015.94 1015.56 1015.18 1014.78 1014.32 1013.81 1013.23 1012.59 1011.91 1011.21 1010.51 1009.83 1009.17 1008.54 1007.93 1007.33 1006.71 1006.06 1005.35 1004.58 1003.75
1017.04 1017.61 1018.10 1018.52 1018.89 1019.21 1019.50 1019.75 1019.95 1020.11 1020.19 1020.18 1020.08 1019.88 1019.58 1019.20 1018.76 1018.27 1017.78 1017.30 1016.84 1016.41 1016.00 1015.62 1015.22 1014.81 1014.36 1013.86 1013.31 1012.71 1012.07 1011.40 1010.72 1010.04 1009.37 1008.70 1008.04 1007.37 1006.68 1005.95 1005.19 1004.39 1003.55
1016.07 1016.67 1017.20 1017.68 1018.09 1018.46 1018.78 1019.06 1019.30 1019.48 1019.60 1019.64 1019.60 1019.47 1019.25 1018.96 1018.61 1018.21 1017.79 1017.36 1016.94 1016.52 1016.12 1015.72 1015.31 1014.88 1014.43 1013.94 1013.41 1012.85 1012.25 1011.63 1011.00 1010.35 1009.68 1009.01 1008.32 1007.60 1006.86 1006.08 1005.27 1004.44 1003.60
1015.09 1015.76 1016.36 1016.90 1017.37 1017.79 1018.15 1018.46 1018.72 1018.93 1019.08 1019.16 1019.17 1019.10 1018.97 1018.77 1018.51 1018.20 1017.85 1017.48 1017.09 1016.69 1016.28 1015.86 1015.43 1014.97 1014.51 1014.02 1013.51 1012.98 1012.44 1011.88 1011.30 1010.70 1010.08 1009.43 1008.74 1008.02 1007.25 1006.44 1005.61 1004.76 1003.91
1014.12 1014.88 1015.56 1016.18 1016.72 1017.19 1017.60 1017.94 1018.23 1018.46 1018.63 1018.75 1018.80 1018.80 1018.74 1018.62 1018.45 1018.23 1017.96 1017.64 1017.29 1016.90 1016.48 1016.03 1015.56 1015.08 1014.59 1014.09 1013.60 1013.10 1012.61 1012.11 1011.60 1011.08 1010.53 1009.93 1009.28 1008.58 1007.82 1007.02 1006.18 1005.33 1004.49
1013.17 1014.01 1014.79 1015.49 1016.11 1016.64 1017.09 1017.47 1017.79 1018.04 1018.24 1018.38 1018.49 1018.54 1018.56 1018.52 1018.43 1018.29 1018.09 1017.83 1017.50 1017.12 1016.69 1016.22 1015.71 1015.19 1014.67 1014.15 1013.66 1013.19 1012.74 1012.32 1011.89 1011.45 1010.98 1010.47 1009.89 1009.24 1008.52 1007.75 1006.94 1006.10 1005.27
1012.22 1013.14 1014.01 1014.79 1015.48 1016.08 1016.59 1017.00 1017.35 1017.63 1017.85 1018.04 1018.19 1018.30 1018.38 1018.42 1018.42 1018.35 1018.22 1018.00 1017.71 1017.34 1016.89 1016.39 1015.85 1015.28 1014.73 1014.19 1013.70 1013.25 1012.85 1012.48 1012.14 1011.79 1011.42 1011.00 1010.51 1009.95 1009.30 1008.58 1007.80 1007.00 1006.19
1011.27 1012.26 1013.20 1014.06 1014.82 1015.47 1016.03 1016.49 1016.86 1017.18 1017.44 1017.66 1017.86 1018.03 1018.18 1018.30 1018.37 1018.37 1018.30 1018.14 1017.87 1017.51 1017.05 1016.53 1015.95 1015.36 1014.76 1014.21 1013.71 1013.28 1012.92 1012.61 1012.35 1012.09 1011.82 1011.51 1011.12 1010.64 1010.08 1009.42 1008.71 1007.95 1007.18
1010.31 1011.35 1012.34 1013.25 1014.07 1014.78 1015.38 1015.88 1016.30 1016.65 1016.95 1017.22 1017.47 1017.71 1017.92 1018.11 1018.25 1018.32 1018.31 1018.20 1017.96 1017.61 1017.16 1016.62 1016.02 1015.40 1014.78 1014.21 1013.71 1013.29 1012.96 1012.71 1012.52 1012.35 1012.17 1011.96 1011.67 1011.29 1010.82 1010.25 1009.60 1008.90 1008.17
1009.31 1010.39 1011.41 1012.37 1013.23 1013.98 1014.62 1015.17 1015.63 1016.02 1016.37 1016.69 1017.00 1017.30 1017.59 1017.84 1018.05 1018.19 1018.24 1018.17 1017.97 1017.64 1017.20 1016.65 1016.04 1015.41 1014.78 1014.20 1013.70 1013.30 1013.00 1012.79 1012.65 1012.56 1012.47 1012.34 1012.15 1011.88 1011.50 1011.02 1010.45 1009.82 1009.16
1008.29 1009.38 1010.42 1011.40 1012.30 1013.08 1013.77 1014.36 1014.86 1015.31 1015.71 1016.09 1016.46 1016.83 1017.18 1017.50 1017.78 1017.98 1018.08 1018.06 1017.90 1017.60 1017.17 1016.64 1016.03 1015.39 1014.76 1014.19 1013.69 1013.30 1013.02 1012.85 1012.76 1012.73 1012.71 1012.67 1012.57 1012.39 1012.11 1011.73 1011.25 1010.71 1010.12
1007.24 1008.33 1009.38 1010.38 1011.30 1012.12 1012.84 1013.48 1014.03 1014.53 1014.99 1015.44 1015.87 1016.30 1016.72 1017.11 1017.45 1017.71 1017.87 1017.89 1017.77 1017.50 1017.10 1016.58 1015.99 1015.36 1014.74 1014.17 1013.68 1013.31 1013.05 1012.90 1012.85 1012.86 1012.91 1012.94 1012.92 1012.84 1012.65 1012.38 1012.01 1011.56 1011.07
1006.18 1007.26 1008.32 1009.33 1010.26 1011.11 1011.87 1012.55 1013.16 1013.71 1014.24 1014.75 1015.25 1015.75 1016.24 1016.69 1017.09 1017.40 1017.61 1017.68 1017.60 1017.36 1016.99 1016.50 1015.93 1015.32 1014.71 1014.15 1013.68 1013.31 1013.07 1012.94 1012.92 1012.97 1013.06 1013.16 1013.22 1013.22 1013.14 1012.97 1012.72 1012.39 1012.01
Thickness
5437 5420 5403 5387 5370 5354 5336 5318 5299 5282 5265 5250 5236 5222 5208 5193 5177 5162 5149 5139 5131 5125 5119 5115 5113 5114 5117 5122 5127 5134 5139 5146 5156 5170 5182 5198 5216 5236 5256 5274 5291 5307 5326
5436 5418 5401 5384 5368 5351 5334 5316 5298 5280 5264 5250 5236 5223 5208 5194 5179 5166 5154 5144 5135 5128 5123 5117 5114 5115 5116 5121 5126 5132 5139 5146 5154 5165 5179 5194 5211 5230 5250 5268 5286 5303 5321
5434 5416 5399 5382 5366 5350 5333 5315 5297 5280 5265 5250 5237 5224 5210 5197 5184 5171 5160 5151 5143 5135 5128 5121 5118 5117 5118 5122 5127 5134 5141 5148 5153 5162 5175 5189 5206 5225 5244 5262 5280 5297 5316
5434 5416 5398 5382 5365 5348 5331 5314 5297 5281 5266 5252 5239 5226 5214 5201 5189 5179 5169 5161 5153 5144 5136 5130 5125 5122 5123 5126 5131 5137 5143 5149 5154 5162 5174 5187 5202 5219 5236 5254 5273 5291 5308
5434 5415 5398 5381 5364 5347 5329 5313 5297 5282 5267 5254 5241 5229 5217 5205 5196 5188 5180 5171 5162 5154 5146 5139 5134 5132 5133 5134 5138 5141 5146 5150 5155 5163 5174 5186 5198 5212 5227 5244 5263 5282 5302
5434 5416 5398 5380 5363 5346 5329 5314 5299 5284 5270 5256 5244 5232 5221 5212 5205 5199 5191 5181 5172 5164 5156 5148 5143 5140 5138 5140 5142 5146 5150 5152 5157 5165 5174 5182 5193 5206 5222 5238 5253 5270 5292
5434 5416 5398 5380 5363 5347 5331 5316 5302 5287 5273 5260 5248 5236 5227 5219 5213 5207 5200 5190 5181 5173 5165 5158 5153 5148 5145 5144 5146 5148 5149 5154 5160 5166 5173 5180 5191 5204 5218 5234 5248 5263 5281
5435 5417 5399 5381 5364 5348 5332 5318 5304 5290 5277 5265 5254 5243 5234 5226 5220 5214 5207 5196 5188 5180 5173 5166 5160 5156 5154 5155 5153 5152 5152 5156 5162 5167 5175 5184 5195 5206 5218 5231 5245 5261 5279
5436 5419 5401 5383 5366 5350 5335 5321 5308 5295 5282 5270 5259 5249 5239 5231 5225 5220 5213 5202 5193 5186 5179 5174 5169 5164 5163 5164 5160 5158 5159 5162 5166 5172 5180 5188 5199 5210 5221 5232 5243 5256 5276
5441 5423 5405 5387 5370 5354 5339 5326 5313 5299 5286 5274 5264 5252 5243 5235 5229 5225 5218 5208 5198 5191 5185 5180 5175 5173 5172 5171 5166 5164 5165 5168 5169 5173 5180 5188 5197 5207 5219 5229 5239 5252 5267
5444 5426 5408 5391 5374 5359 5344 5331 5317 5303 5290 5277 5266 5255 5246 5238 5233 5227 5222 5213 5205 5197 5191 5185 5181 5181 5180 5177 5174 5170 5172 5172 5172 5176 5183 5190 5199 5208 5218 5229 5240 5253 5267
5446 5429 5411 5395 5379 5364 5348 5333 5320 5306 5292 5279 5268 5258 5249 5241 5235 5230 5225 5218 5212 5201 5195 5191 5188 5188 5186 5183 5180 5179 5178 5176 5176 5180 5186 5193 5201 5211 5221 5233 5246 5260 5275
5447 5430 5413 5397 5382 5367 5351 5336 5323 5310 5295 5283 5271 5262 5253 5245 5237 5232 5227 5221 5215 5207 5200 5198 5196 5193 5191 5187 5186 5184 5182 5180 5181 5184 5189 5196 5205 5215 5227 5241 5256 5270 5286
5449 5431 5415 5400 5385 5370 5356 5342 5327 5313 5299 5286 5274 5265 5255 5247 5241 5235 5230 5223 5218 5211 5206 5201 5199 5196 5194 5193 5190 5188 5186 5186 5186 5188 5193 5200 5210 5221 5233 5247 5262 5278 5294
5449 5434 5418 5403 5389 5374 5360 5346 5333 5320 5306 5291 5279 5268 5259 5251 5245 5242 5235 5229 5223 5217 5212 5205 5202 5200 5199 5197 5196 5194 5193 5193 5192 5194 5199 5205 5215 5226 5238 5251 5266 5281 5297
5451 5436 5421 5406 5391 5377 5362 5349 5338 5326 5313 5300 5287 5274 5264 5257 5251 5244 5238 5232 5228 5223 5215 5209 5205 5203 5201 5201 5200 5199 5198 5198 5198 5201 5204 5210 5219 5229 5241 5254 5269 5284 5298
5454 5439 5424 5409 5394 5380 5366 5351 5338 5327 5316 5304 5291 5279 5269 5261 5254 5247 5241 5236 5230 5224 5216 5211 5208 5205 5204 5204 5204 5203 5203 5203 5204 5206 5209 5215 5223 5233 5244 5257 5271 5285 5300
5452 5440 5426 5411 5397 5383 5369 5354 5340 5327 5314 5302 5293 5283 5273 5265 5258 5250 5244 5236 5230 5224 5218 5214 5211 5209 5207 5207 5208 5208 5208 5209 5210 5211 5215 5220 5227 5237 5247 5259 5271 5285 5300
5449 5437 5425 5410 5397 5384 5370 5356 5342 5330 5317 5305 5294 5284 5275 5266 5260 5252 5245 5236 5230 5226 5221 5218 5215 5212 5211 5210 5211 5212 5213 5214 5215 5216 5219 5224 5231 5240 5250 5260 5272 5286 5299
5446 5436 5423 5409 5396 5383 5371 5357 5344 5332 5320 5308 5297 5286 5275 5266 5259 5252 5245 5239 5233 5228 5224 5221 5218 5216 5214 5214 5214 5215 5217 5218 5219 5220 5223 5228 5234 5242 5251 5261 5272 5284 5297
5444 5433 5421 5407 5394 5383 5371 5358 5346 5333 5322 5311 5300 5290 5281 5269 5261 5254 5247 5241 5235 5230 5227 5224 5222 5220 5219 5218 5218 5218 5220 5221 5222 5223 5226 5230 5236 5243 5251 5261 5271 5283 5296
5443 5431 5420 5406 5394 5382 5371 5359 5347 5335 5324 5313 5302 5293 5284 5273 5263 5256 5250 5244 5238 5233 5230 5227 5226 5224 5223 5222 5222 5222 5222 5222 5223 5224 5227 5231 5237 5244 5251 5260 5270 5280 5293
5440 5430 5418 5405 5393 5382 5371 5359 5347 5336 5325 5315 5305 5295 5285 5275 5266 5259 5252 5247 5241 5237 5233 5231 5229 5228 5227 5226 5225 5224 5224 5223 5223 5224 5227 5230 5235 5241 5249 5257 5266 5276 5287
5435 5428 5417 5405 5393 5382 5371 5359 5348 5338 5326 5316 5307 5297 5286 5276 5267 5261 5254 5249 5244 5239 5236 5233 5231 5230 5229 5229 5228 5227 5226 5225 5224 5223 5225 5228 5232 5238 5245 5252 5261 5270 5280
5431 5425 5416 5406 5394 5383 5372 5361 5350 5339 5329 5319 5309 5299 5289 5279 5270 5262 5256 5250 5245 5241 5238 5235 5233 5232 5231 5231 5231 5230 5229 5226 5224 5222 5222 5224 5227 5232 5239 5245 5254 5262 5271
5427 5422 5415 5405 5394 5383 5373 5363 5353 5342 5331 5322 5311 5300 5290 5280 5271 5264 5257 5252 5247 5243 5240 5237 5235 5233 5233 5233 5232 5232 5230 5227 5224 5221 5219 5219 5221 5226 5231 5238 5245 5253 5261